Powrót do katalogu

STARLINK-3154

AktywnyŁącznośćVLEO
NORAD 49417·PAYLOAD·🇺🇸 United States

Wystrzelony Nov 13, 2021 z Cape Canaveral Space Force Station

Loading…

Następne Przeloty (najbliższe 24 godziny)

TLE

ŚwieżeSource: CelesTrak SupGP

Epoka: Sep 14, 2026, 20:55 UTC

1 49417C 21104K   26257.87201389  .00024860  00000+0  73486-3 0  2570
2 49417  53.1585  78.3783 0001198  82.6804  29.0477 15.34362273    13

Śledź STARLINK-3154 w czasie rzeczywistym z AllMySat

Download on the App Store